Location: Woodhurst
(52.3667°N, 0.0667°W)
Time: 01:08:30
(UTC+00:00)

Cosmos 1833 Rocket - Pass Details

Date: 19 May 2025
Orbit: 831 x 839 km, 71.0° (Epoch: 18 June)

Event Time Altitude Azimuth Distance (km) Brightness Sun altitude
Rises 22:05:59 0° 225° (SW) 3,382 5.7 -13.7°
Reaches altitude 10° 22:08:28 10° 230° (SW) 2,452 5.0 -13.9°
Maximum altitude 22:13:59 54° 308° (NW) 1,012 3.5 -14.3°
Drops below altitude 10° 22:19:32 10° 26° (NNE) 2,465 5.7 -14.6°
Sets 22:22:03 0° 31° (NNE) 3,403 6.4 -14.8°
